Tracking 18796 objects as of 20-September-2017
HD Live streaming from Space Station
objects crossing your sky now

OPTUS D1

Track OPTUS D1 now!
OPTUS D1 is classified as:


NORAD ID: 29495
Int'l Code: 2006-043B
Perigee: 35,780.5 km
Apogee: 35,808.2 km
Inclination: 0.0 °
Period: 1,436.1 minutes
Semi major axis: 42165 km
RCS: 0.003 m2 (small)
Launch date: October 13, 2006
Source: Australia (AUS)
Launch site: FRENCH GUIANA (FRGUI)

OPTUS D1 will provide fixed communications and satellite broadcast services over Australia and New Zealand
aabbcc
Your satellite tracking list
Your tracking list is empty





NASA's NSSDC Master Catalog

Two Line Element Set (TLE):
1 29495U 06043B   17263.41924257 -.00000141  00000-0  00000+0 0  9991
2 29495   0.0237 182.5655 0003286 355.0082 132.8430  1.00269620 40132
Source of the keplerian elements: AFSPC